OPS 4467 B

Satellite information

Favourite Embed

Satellite Type and Status

PAYLOADIN ORBIT

Key statistics

Satellite OPS 4467 B at a glance.

Uptime

22361

Days in orbit

Revolutions

≈ 14.2

Per day

Orbit

SSO

Sun Synchronous Orbit

Inclination

99.8

Latest

Satellite identification and parameters

Extended collection of information and parameters for OPS 4467 B.

Object identification

Identified? True

Debris? False

Object name: OPS 4467 B

International designator: 1964-031B

Object number (NORAD): 813

Object ID (CCSDS): 813

Country: UNITED STATES OF AMERICA (US)

Current information (Y/N): Y

RCS size: MEDIUM

Orbital parameters

Period: 101.151 minutes

Inclination: 99.7913 deg

SMA: 7191.279 km

Apoapsis: 816.448 km

Periapsis: 809.839 km

RAAN: 5.4045 deg

Eccentricy: 0.00045952

Argument of periapsis: 245.9172 deg

Mean anomaly: 114.1522 deg

Mean motion: 14.23618299 rev/day

Mean motion (dot): 0.00000145 rev/day2

B* drag term: 0.000087142858 1/REarth

Two-line elements (TLE)

Creation date: Sept. 7, 2025, 3:09 a.m.

Reference frame: TEME

Reference center: EARTH

Epoch: Sept. 6, 2025, 10:13 p.m. UTC

TLE line 0: 0 OPS 4467 B

TLE line 1: 1 00813U 64031B 25249.92582410 .00000145 00000-0 87143-4 0 9996

TLE line 2: 2 00813 99.7913 5.4045 0004595 245.9172 114.1522 14.23618299174624

Live tracking on map

Real-time ground track for satellite OPS 4467 B.

In-orbit conjunctions

There are no conjunctions computed for OPS 4467 B, at the moment. Check back to stay up to date, as we update our databases every day.

Go to all conjunctions

Associated space launch

The DSAP-1 (Defense Satellite Application Program Block 1) satellites series, also known as P-35, was the first series of military meteorologal satellites of the USA.

OPS 4467 B was lifted into orbit during the mission ‘Thor SLV-2 Agena D | DSAP-1 F8 & F9’, on board a Thor SLV-2 Agena D space rocket.

The launch took place on June 18, 1964, 4:56 a.m. from Space Launch Complex 1W.

For more information about the launch, click the button.

Launch to space Thor SLV-2 Agena D | DSAP-1 F8 & F9
Thor SLV-2 Agena D | DSAP-1 F8 & F9

Agency: N/A

Status: Launch Successful

Launch date: June 18, 1964, 4:56 a.m. UTC

Rocket: Thor SLV-2 Agena D

Launch pad: Space Launch Complex 1W

Location: Vandenberg SFB, CA, USA

...

Latest news about this satellite

There are no fresh news available about this satellite. Check back as we update our databases every day.


Newsletter sign-up

Weekly statistics, charts and insights to help you stay on top of the space industry.